Voltar ao catálogo

CZ-6A DEB

AtivoSSO
NORAD 54360·DEBRIS·🇨🇳 China

Lançado Nov 11, 2022 de Taiyuan Satellite Launch Center

Loading…

Próximas Passagens (próximas 24 horas)

TLE

AtualizadoSource: Space-Track

Época: Sep 14, 2026, 06:01 UTC

1 54360U 22151DF  26257.25126575  .00000787  00000-0  36176-3 0  9992
2 54360  98.7049 252.7032 0086380 276.1161  83.0180 14.22098742198329

Acompanhe CZ-6A DEB em tempo real com AllMySat

Download on the App Store